Stations météo

réclame
Mon MeteoGroup
Fairford Royal Air Force Base, Grande-Bretagne (3644): Température de l'air & dewpoint: 14.08.2019 04:00:00 - 20.08.2019 04:00:00 (BST)Fairford Royal Air Force Base, Grande-Bretagne (3644): Vitesse du vent & gusts: 14.08.2019 04:00:00 - 20.08.2019 04:00:00 (BST)Fairford Royal Air Force Base, Grande-Bretagne (3644): Direction du vent: 14.08.2019 04:00:00 - 20.08.2019 04:00:00 (BST)Fairford Royal Air Force Base, Grande-Bretagne (3644): reduced air pressure: 14.08.2019 04:00:00 - 20.08.2019 04:00:00 (BST)Fairford Royal Air Force Base, Grande-Bretagne (3644): visibility: 14.08.2019 04:00:00 - 20.08.2019 04:00:00 (BST)Fairford Royal Air Force Base, Grande-Bretagne (3644): Quantités de précipitations: 14.08.2019 04:00:00 - 20.08.2019 04:00:00 (BST)
Date & Time tt [°C] td [°C] ff [km/h] ff [knt] fx [km/h] fx [knt] dd ppp [hPa] vv [km] rr [mm]
20.08.2019 04:00:00 9,1 8,5 8 4 - - WSW 1019,3 10 -
20.08.2019 03:00:00 9,5 8,6 8 4 - - SW 1018,9 10 -
20.08.2019 02:00:00 10,4 9,2 8 4 - - W 1018,9 10 -
20.08.2019 01:00:00 11,1 9,7 11 6 - - WSW 1018,9 10 -
20.08.2019 00:00:00 11,1 9,4 13 7 - - WSW 1018,9 10 -
19.08.2019 23:00:00 11,7 9,1 8 4 - - WSW 1018,2 10 -
19.08.2019 22:00:00 12,8 9,6 15 8 - - WSW 1017,9 10 -
19.08.2019 21:00:00 14,5 10,1 16 9 - - WSW 1017,2 10 -
19.08.2019 20:00:00 15,8 10,1 28 15 - - WSW 1016,5 10 -
19.08.2019 19:00:00 17,2 9,1 31 17 48 26 WSW 1016,2 10 -
19.08.2019 18:00:00 18,4 8,6 28 15 50 27 W 1015,5 10 -
19.08.2019 17:00:00 19,1 9,0 35 19 - - WSW 1015,1 10 -
19.08.2019 16:00:00 18,4 9,7 18 10 52 28 WNW 1015,1 10 -
19.08.2019 15:00:00 20,0 8,0 37 20 - - WSW 1014,4 10 0,0
19.08.2019 14:00:00 18,9 11,5 29 16 - - WSW 1014,1 10 -
19.08.2019 13:00:00 18,0 12,4 26 14 - - W 1013,8 10 -
19.08.2019 12:00:00 - - - - - - - - - -
19.08.2019 11:00:00 16,9 13,0 22 12 - - WSW 1013,1 10 -
19.08.2019 10:00:00 15,7 12,4 22 12 - - WSW 1012,8 10 -
19.08.2019 09:00:00 15,0 11,9 26 14 - - WSW 1012,1 10 -
19.08.2019 08:00:00 13,6 11,5 21 11 - - SW 1011,8 10 -
19.08.2019 07:00:00 - - - - - - - - - -
19.08.2019 06:00:00 - - - - - - - - - -
19.08.2019 05:00:00 - - - - - - - - - -
19.08.2019 04:00:00 - - - - - - - - - -
19.08.2019 03:00:00 - - - - - - - - - -
19.08.2019 02:00:00 - - - - - - - - - -
19.08.2019 01:00:00 - - - - - - - - - -
19.08.2019 00:00:00 - - - - - - - - - -
18.08.2019 23:00:00 - - - - - - - - - -
18.08.2019 22:00:00 13,4 10,2 21 11 - - SW 1008,1 - 0,0
18.08.2019 21:00:00 - - - - - - - - - -
18.08.2019 20:00:00 - - - - - - - - - -
18.08.2019 19:00:00 - - - - - - - - - -
18.08.2019 18:00:00 - - - - - - - - - -
18.08.2019 17:00:00 - - - - - - - - - -
18.08.2019 16:00:00 - - - - - - - - - -
18.08.2019 15:00:00 - - - - - - - - - -
18.08.2019 14:00:00 19,1 10,4 37 20 50 27 WSW 1004,5 - 0,0
18.08.2019 13:00:00 - - - - - - - - - -
18.08.2019 12:00:00 - - - - - - - - - -
18.08.2019 11:00:00 - - - - - - - - - -
18.08.2019 10:00:00 - - - - - - - - - -
18.08.2019 09:00:00 - - - - - - - - - -
18.08.2019 08:00:00 - - - - - - - - - -
18.08.2019 07:00:00 - - - - - - - - - -
18.08.2019 06:00:00 - - - - - - - - - -
18.08.2019 05:00:00 - - - - - - - - - -
18.08.2019 04:00:00 13,8 11,1 9 5 - - SSW 1002,8 - 0,0
18.08.2019 03:00:00 - - - - - - - - - -
18.08.2019 02:00:00 - - - - - - - - - -
18.08.2019 01:00:00 - - - - - - - - - -
18.08.2019 00:00:00 - - - - - - - - - -
17.08.2019 23:00:00 - - - - - - - - - -
17.08.2019 22:00:00 - - - - - - - - - -
17.08.2019 21:00:00 - - - - - - - - - -
17.08.2019 20:00:00 - - - - - - - - - -
17.08.2019 19:00:00 - - - - - - - - - -
17.08.2019 18:00:00 - - - - - - - - - -
17.08.2019 17:00:00 - - - - - - - - - -
17.08.2019 16:00:00 - - - - - - - - - -
17.08.2019 15:00:00 20,9 8,5 39 21 52 28 WSW 1004,5 10 -
17.08.2019 14:00:00 20,5 9,4 35 19 55 30 WSW 1004,5 10 -
17.08.2019 13:00:00 20,1 9,9 42 23 55 30 W 1004,5 - -
17.08.2019 12:00:00 - - - - - - - - - -
17.08.2019 11:00:00 - - - - - - - - - -
17.08.2019 10:00:00 - - - - - - - - - -
17.08.2019 09:00:00 - - - - - - - - - -
17.08.2019 08:00:00 - - - - - - - - - -
17.08.2019 07:00:00 - - - - - - - - - -
17.08.2019 06:00:00 - - - - - - - - - -
17.08.2019 05:00:00 - - - - - - - - - -
17.08.2019 04:00:00 - - - - - - - - - -
17.08.2019 03:00:00 - - - - - - - - - -
17.08.2019 02:00:00 - - - - - - - - - -
17.08.2019 01:00:00 - - - - - - - - - -
17.08.2019 00:00:00 - - - - - - - - - -
16.08.2019 23:00:00 - - - - - - - - - -
16.08.2019 22:00:00 - - - - - - - - - -
16.08.2019 21:00:00 - - - - - - - - - -
16.08.2019 20:00:00 - - - - - - - - - -
16.08.2019 19:00:00 - - - - - - - - - -
16.08.2019 18:00:00 - - - - - - - - - -
16.08.2019 17:00:00 - - - - - - - - - -
16.08.2019 16:00:00 16,1 15,1 31 17 50 27 SSW 1006,3 - 2,0
16.08.2019 15:00:00 - - - - - - - - - -
16.08.2019 14:00:00 16,2 14,7 31 17 - - SSW 1008,1 - 0,0
16.08.2019 13:00:00 15,4 13,9 22 12 - - SSW 1009,1 - 0,8
16.08.2019 12:00:00 16,0 14,0 28 15 - - SSW 1010,1 - -
16.08.2019 11:00:00 - - - - - - - - - -
16.08.2019 10:00:00 16,3 13,0 28 15 - - SSW 1011,1 10 0,0
16.08.2019 09:00:00 15,8 13,6 22 12 - - SSW 1012,1 10 0,0
16.08.2019 08:00:00 14,9 13,4 16 9 - - SSW 1012,7 10 -
16.08.2019 07:00:00 14,8 12,8 16 9 - - SSW 1013,4 10 -
16.08.2019 06:00:00 14,5 12,9 16 9 - - SSW 1013,7 10 0,0
16.08.2019 05:00:00 - - - - - - - - - -
16.08.2019 04:00:00 - - - - - - - - - -
16.08.2019 03:00:00 - - - - - - - - - -
16.08.2019 02:00:00 - - - - - - - - - -
16.08.2019 01:00:00 - - - - - - - - - -
16.08.2019 00:00:00 - - - - - - - - - -
15.08.2019 23:00:00 - - - - - - - - - -
15.08.2019 22:00:00 - - - - - - - - - -
15.08.2019 21:00:00 - - - - - - - - - -
15.08.2019 20:00:00 - - - - - - - - - -
15.08.2019 19:00:00 - - - - - - - - - -
15.08.2019 18:00:00 - - - - - - - - - -
15.08.2019 17:00:00 19,1 9,0 24 13 - - W 1015,1 10 -
15.08.2019 16:00:00 19,8 9,7 21 11 - - WNW 1014,0 10 -
15.08.2019 15:00:00 20,6 10,4 34 18 - - W 1014,0 10 -
15.08.2019 14:00:00 20,0 10,7 26 14 - - WNW 1013,7 10 -
15.08.2019 13:00:00 19,7 10,9 29 16 - - WNW 1013,3 10 -
15.08.2019 12:00:00 18,0 10,6 22 12 - - WNW 1012,7 10 -
15.08.2019 11:00:00 18,9 11,7 26 14 - - WNW 1011,6 10 -
15.08.2019 10:00:00 17,9 11,7 31 17 - - W 1011,3 10 -
15.08.2019 09:00:00 - - - - - - - - - -
15.08.2019 08:00:00 - - - - - - - - - -
15.08.2019 07:00:00 - - - - - - - - - -
15.08.2019 06:00:00 - - - - - - - - - -
15.08.2019 05:00:00 - - - - - - - - - -
15.08.2019 04:00:00 - - - - - - - - - -
15.08.2019 03:00:00 - - - - - - - - - -
15.08.2019 02:00:00 - - - - - - - - - -
15.08.2019 01:00:00 - - - - - - - - - -
15.08.2019 00:00:00 - - - - - - - - - -
14.08.2019 23:00:00 - - - - - - - - - -
14.08.2019 22:00:00 - - - - - - - - - -
14.08.2019 21:00:00 - - - - - - - - - -
14.08.2019 20:00:00 - - - - - - - - - -
14.08.2019 19:00:00 - - - - - - - - - -
14.08.2019 18:00:00 16,9 16,7 16 9 - - SW 1007,0 - 0,0
14.08.2019 17:00:00 16,7 16,4 18 10 - - SSW 1007,7 - 0,0
14.08.2019 16:00:00 - - - - - - - - - -
14.08.2019 15:00:00 - - - - - - - - - -
14.08.2019 14:00:00 16,9 15,6 24 13 - - SSW 1009,0 10 -
14.08.2019 13:00:00 15,5 14,7 28 15 50 27 S 1009,7 10 0,3
14.08.2019 12:00:00 - - - - - - - - - -
14.08.2019 11:00:00 - - - - - - - - - -
14.08.2019 10:00:00 13,6 13,1 15 8 - - SSE 1011,8 - 1,5
14.08.2019 09:00:00 - - - - - - - - - -
14.08.2019 08:00:00 - - - - - - - - - -
14.08.2019 07:00:00 - - - - - - - - - -
14.08.2019 06:00:00 - - - - - - - - - -
14.08.2019 05:00:00 - - - - - - - - - -
14.08.2019 04:00:00 - - - - - - - - - -

tt = Température de l'air
td = dewpoint
ff = Vitesse du vent
fx = gusts
dd = Direction du vent
ppp = reduced air pressure
vv = visibility
rr = Quantités de précipitations

stations d'obs. à proximité